Time,TemperatureF,DewpointF,PressureIn,WindDirection,WindDirectionDegrees,WindSpeedMPH,WindSpeedGustMPH,Humidity,HourlyPrecipIn,Conditions,Clouds,dailyrainin,SolarRadiationWatts/m^2,SoftwareType,DateUTC
2013-07-09 00:01:00,49.7,47.8,30.03,West,281,1.0,1.0,93,0.00,,,0.00,0,Wunderground v.1.15,2013-07-09 06:01:00,
2013-07-09 00:07:00,49.7,47.8,30.03,West,281,0.0,1.0,93,0.00,,,0.00,0,Wunderground v.1.15,2013-07-09 06:07:00,
2013-07-09 00:13:00,49.7,47.8,30.03,West,281,0.0,0.0,93,0.00,,,0.00,0,Wunderground v.1.15,2013-07-09 06:13:00,
2013-07-09 00:19:00,49.6,47.7,30.04,West,281,0.0,1.0,93,0.00,,,0.00,0,Wunderground v.1.15,2013-07-09 06:19:00,
2013-07-09 00:25:00,49.4,47.5,30.04,West,281,0.0,0.0,93,0.00,,,0.00,0,Wunderground v.1.15,2013-07-09 06:25:00,
2013-07-09 00:31:00,49.3,47.4,30.04,West,281,0.0,1.0,93,0.00,,,0.00,0,Wunderground v.1.15,2013-07-09 06:31:00,
2013-07-09 00:37:00,49.2,47.3,30.05,West,281,0.0,1.0,93,0.00,,,0.00,0,Wunderground v.1.15,2013-07-09 06:37:00,
2013-07-09 00:43:00,49.1,47.2,30.05,West,281,0.0,0.0,93,0.00,,,0.00,0,Wunderground v.1.15,2013-07-09 06:43:00,
2013-07-09 00:48:00,48.9,47.0,30.05,WNW,282,0.0,0.0,93,0.00,,,0.00,0,Wunderground v.1.15,2013-07-09 06:48:00,
2013-07-09 00:54:00,48.8,46.9,30.05,WNW,282,0.0,0.0,93,0.00,,,0.00,0,Wunderground v.1.15,2013-07-09 06:54:00,
2013-07-09 01:00:00,48.6,46.7,30.05,West,281,0.0,0.0,93,0.00,,,0.00,0,Wunderground v.1.15,2013-07-09 07:00:00,
2013-07-09 01:06:00,48.5,46.9,30.05,WNW,282,0.0,0.0,94,0.00,,,0.00,0,Wunderground v.1.15,2013-07-09 07:06:00,
2013-07-09 01:12:00,48.5,46.9,30.05,WNW,282,0.0,0.0,94,0.00,,,0.00,0,Wunderground v.1.15,2013-07-09 07:12:00,
2013-07-09 01:18:00,48.3,46.7,30.05,West,281,0.0,1.0,94,0.00,,,0.00,0,Wunderground v.1.15,2013-07-09 07:18:00,
2013-07-09 01:24:00,48.3,46.7,30.05,WNW,282,0.0,0.0,94,0.00,,,0.00,0,Wunderground v.1.15,2013-07-09 07:24:00,
2013-07-09 01:30:00,48.3,46.7,30.05,WNW,282,0.0,0.0,94,0.00,,,0.00,0,Wunderground v.1.15,2013-07-09 07:30:00,
2013-07-09 01:36:00,48.2,46.6,30.06,West,281,0.0,0.0,94,0.00,,,0.00,0,Wunderground v.1.15,2013-07-09 07:36:00,
2013-07-09 01:42:00,48.1,46.5,30.06,West,281,0.0,0.0,94,0.00,,,0.00,0,Wunderground v.1.15,2013-07-09 07:42:00,
2013-07-09 01:48:00,48.1,46.7,30.06,WNW,282,0.0,0.0,95,0.00,,,0.00,0,Wunderground v.1.15,2013-07-09 07:48:00,
2013-07-09 01:53:00,48.1,46.5,30.06,West,281,0.0,0.0,94,0.00,,,0.00,0,Wunderground v.1.15,2013-07-09 07:53:00,
2013-07-09 01:59:00,47.9,46.3,30.06,WNW,282,0.0,0.0,94,0.00,,,0.00,0,Wunderground v.1.15,2013-07-09 07:59:00,
2013-07-09 02:05:00,47.8,46.2,30.06,WNW,282,0.0,0.0,94,0.00,,,0.00,0,Wunderground v.1.15,2013-07-09 08:05:00,
2013-07-09 02:11:00,47.8,46.2,30.06,WNW,282,0.0,0.0,94,0.00,,,0.00,0,Wunderground v.1.15,2013-07-09 08:11:00,
2013-07-09 02:17:00,47.7,46.1,30.07,WNW,282,0.0,0.0,94,0.00,,,0.00,0,Wunderground v.1.15,2013-07-09 08:17:00,
2013-07-09 02:23:00,47.4,45.8,30.07,WNW,282,0.0,0.0,94,0.00,,,0.00,0,Wunderground v.1.15,2013-07-09 08:23:00,
2013-07-09 02:29:00,47.2,45.6,30.07,WNW,282,0.0,0.0,94,0.00,,,0.00,0,Wunderground v.1.15,2013-07-09 08:29:00,
2013-07-09 02:35:00,47.2,45.6,30.07,WNW,282,0.0,0.0,94,0.00,,,0.00,0,Wunderground v.1.15,2013-07-09 08:35:00,
2013-07-09 02:40:00,47.2,45.6,30.07,WNW,282,0.0,0.0,94,0.00,,,0.00,0,Wunderground v.1.15,2013-07-09 08:40:00,
2013-07-09 02:45:00,47.0,45.4,30.07,WNW,282,0.0,0.0,94,0.00,,,0.00,0,Wunderground v.1.15,2013-07-09 08:45:00,
2013-07-09 02:51:00,47.0,45.6,30.07,WNW,282,0.0,0.0,95,0.00,,,0.00,0,Wunderground v.1.15,2013-07-09 08:51:00,
2013-07-09 02:56:00,46.9,45.5,30.07,WNW,282,0.0,0.0,95,0.00,,,0.00,0,Wunderground v.1.15,2013-07-09 08:56:00,
2013-07-09 03:02:00,46.8,45.4,30.07,WNW,282,0.0,0.0,95,0.00,,,0.00,0,Wunderground v.1.15,2013-07-09 09:02:00,
2013-07-09 03:08:00,46.8,45.4,30.08,WNW,282,0.0,0.0,95,0.00,,,0.00,0,Wunderground v.1.15,2013-07-09 09:08:00,
2013-07-09 03:14:00,46.8,45.4,30.08,West,281,0.0,0.0,95,0.00,,,0.00,0,Wunderground v.1.15,2013-07-09 09:14:00,
2013-07-09 03:20:00,46.8,45.4,30.08,WNW,282,0.0,0.0,95,0.00,,,0.00,0,Wunderground v.1.15,2013-07-09 09:20:00,
2013-07-09 03:26:00,46.8,45.4,30.08,WNW,282,0.0,1.0,95,0.00,,,0.00,0,Wunderground v.1.15,2013-07-09 09:26:00,
2013-07-09 03:32:00,46.6,45.2,30.08,West,281,0.0,0.0,95,0.00,,,0.00,0,Wunderground v.1.15,2013-07-09 09:32:00,
2013-07-09 03:38:00,46.5,45.1,30.08,West,281,0.0,0.0,95,0.00,,,0.00,0,Wunderground v.1.15,2013-07-09 09:38:00,
2013-07-09 03:44:00,46.3,44.9,30.08,West,281,0.0,0.0,95,0.00,,,0.00,0,Wunderground v.1.15,2013-07-09 09:44:00,
2013-07-09 03:49:00,46.2,44.8,30.08,WNW,282,0.0,0.0,95,0.00,,,0.00,0,Wunderground v.1.15,2013-07-09 09:49:00,
2013-07-09 03:55:00,46.2,44.8,30.08,WNW,282,0.0,0.0,95,0.00,,,0.00,0,Wunderground v.1.15,2013-07-09 09:55:00,
2013-07-09 04:01:00,46.3,44.9,30.08,WNW,282,0.0,0.0,95,0.00,,,0.00,0,Wunderground v.1.15,2013-07-09 10:01:00,
2013-07-09 04:07:00,46.4,45.0,30.08,WNW,282,0.0,0.0,95,0.00,,,0.00,0,Wunderground v.1.15,2013-07-09 10:07:00,
2013-07-09 04:12:00,46.4,45.0,30.08,WNW,282,0.0,0.0,95,0.00,,,0.00,0,Wunderground v.1.15,2013-07-09 10:12:00,
2013-07-09 04:18:00,46.3,44.9,30.09,WNW,282,0.0,0.0,95,0.00,,,0.00,0,Wunderground v.1.15,2013-07-09 10:18:00,
2013-07-09 04:24:00,46.1,44.7,30.09,West,281,0.0,0.0,95,0.00,,,0.00,0,Wunderground v.1.15,2013-07-09 10:24:00,
2013-07-09 04:29:00,46.0,44.6,30.09,West,281,0.0,0.0,95,0.00,,,0.00,0,Wunderground v.1.15,2013-07-09 10:29:00,
2013-07-09 04:35:00,45.8,44.4,30.09,WNW,282,0.0,0.0,95,0.00,,,0.00,0,Wunderground v.1.15,2013-07-09 10:35:00,
2013-07-09 04:41:00,45.7,44.4,30.09,WNW,282,0.0,0.0,95,0.00,,,0.00,0,Wunderground v.1.15,2013-07-09 10:41:00,
2013-07-09 04:47:00,45.5,44.2,30.10,West,281,0.0,0.0,95,0.00,,,0.01,0,Wunderground v.1.15,2013-07-09 10:47:00,
2013-07-09 04:53:00,45.5,44.2,30.10,WNW,282,0.0,0.0,95,0.00,,,0.01,0,Wunderground v.1.15,2013-07-09 10:53:00,
2013-07-09 04:59:00,45.4,44.1,30.10,WNW,282,0.0,0.0,95,0.00,,,0.01,0,Wunderground v.1.15,2013-07-09 10:59:00,
2013-07-09 05:05:00,45.4,44.1,30.10,WNW,282,0.0,0.0,95,0.00,,,0.01,0,Wunderground v.1.15,2013-07-09 11:05:00,
2013-07-09 05:11:00,45.1,43.8,30.10,WNW,282,0.0,0.0,95,0.00,,,0.01,0,Wunderground v.1.15,2013-07-09 11:11:00,
2013-07-09 05:17:00,45.0,43.7,30.10,WNW,282,0.0,0.0,95,0.00,,,0.01,0,Wunderground v.1.15,2013-07-09 11:17:00,
2013-07-09 05:23:00,44.8,43.5,30.11,WNW,282,0.0,0.0,95,0.00,,,0.01,0,Wunderground v.1.15,2013-07-09 11:23:00,
2013-07-09 05:29:00,44.6,43.3,30.11,WNW,282,0.0,0.0,95,0.00,,,0.01,0,Wunderground v.1.15,2013-07-09 11:29:00,
2013-07-09 05:35:00,44.5,43.2,30.11,WNW,282,0.0,0.0,95,0.00,,,0.01,0,Wunderground v.1.15,2013-07-09 11:35:00,
2013-07-09 05:41:00,44.4,43.1,30.11,WNW,282,0.0,0.0,95,0.00,,,0.01,0,Wunderground v.1.15,2013-07-09 11:41:00,
2013-07-09 05:47:00,44.3,43.0,30.11,WNW,282,0.0,0.0,95,0.00,,,0.01,0,Wunderground v.1.15,2013-07-09 11:47:00,
2013-07-09 05:52:00,44.2,42.9,30.12,West,281,0.0,0.0,95,0.00,,,0.01,0,Wunderground v.1.15,2013-07-09 11:52:00,
2013-07-09 05:58:00,44.2,42.9,30.12,West,281,0.0,0.0,95,0.00,,,0.01,5,Wunderground v.1.15,2013-07-09 11:58:00,
2013-07-09 06:03:00,44.2,42.9,30.12,WNW,282,0.0,0.0,95,0.00,,,0.01,5,Wunderground v.1.15,2013-07-09 12:03:00,
2013-07-09 06:09:00,44.1,42.8,30.12,WNW,282,0.0,0.0,95,0.00,,,0.01,7,Wunderground v.1.15,2013-07-09 12:09:00,
2013-07-09 06:15:00,44.0,42.7,30.12,West,281,0.0,0.0,95,0.00,,,0.01,21,Wunderground v.1.15,2013-07-09 12:15:00,
2013-07-09 06:21:00,44.0,42.7,30.13,WNW,282,0.0,0.0,95,0.00,,,0.01,35,Wunderground v.1.15,2013-07-09 12:21:00,
2013-07-09 06:27:00,44.1,43.0,30.13,WNW,282,0.0,0.0,96,0.00,,,0.01,62,Wunderground v.1.15,2013-07-09 12:27:00,
2013-07-09 06:33:00,44.3,43.2,30.13,West,281,0.0,0.0,96,0.00,,,0.01,35,Wunderground v.1.15,2013-07-09 12:33:00,
2013-07-09 06:39:00,44.6,43.5,30.13,West,281,0.0,0.0,96,0.00,,,0.01,35,Wunderground v.1.15,2013-07-09 12:39:00,
2013-07-09 06:45:00,44.8,43.7,30.13,WNW,282,0.0,0.0,96,0.00,,,0.01,95,Wunderground v.1.15,2013-07-09 12:45:00,
2013-07-09 06:51:00,45.0,43.9,30.14,West,281,0.0,0.0,96,0.00,,,0.01,105,Wunderground v.1.15,2013-07-09 12:51:00,
2013-07-09 06:56:00,45.5,44.4,30.14,West,281,0.0,0.0,96,0.00,,,0.01,116,Wunderground v.1.15,2013-07-09 12:56:00,
2013-07-09 07:02:00,46.4,45.3,30.14,West,281,0.0,0.0,96,0.00,,,0.01,128,Wunderground v.1.15,2013-07-09 13:02:00,
2013-07-09 07:08:00,47.1,46.3,30.15,West,281,0.0,0.0,97,0.00,,,0.01,141,Wunderground v.1.15,2013-07-09 13:08:00,
2013-07-09 07:14:00,47.7,46.9,30.14,West,281,0.0,0.0,97,0.00,,,0.01,153,Wunderground v.1.15,2013-07-09 13:14:00,
2013-07-09 07:20:00,48.4,47.6,30.15,West,281,0.0,0.0,97,0.00,,,0.01,165,Wunderground v.1.15,2013-07-09 13:20:00,
2013-07-09 07:26:00,49.2,48.4,30.15,WNW,282,0.0,0.0,97,0.00,,,0.01,178,Wunderground v.1.15,2013-07-09 13:26:00,
2013-07-09 07:32:00,50.0,49.2,30.15,West,281,0.0,0.0,97,0.00,,,0.01,193,Wunderground v.1.15,2013-07-09 13:32:00,
2013-07-09 07:38:00,50.6,49.8,30.15,WNW,282,0.0,0.0,97,0.00,,,0.01,207,Wunderground v.1.15,2013-07-09 13:38:00,
2013-07-09 07:44:00,51.0,50.2,30.15,WNW,282,0.0,0.0,97,0.00,,,0.01,221,Wunderground v.1.15,2013-07-09 13:44:00,
2013-07-09 07:50:00,51.5,50.7,30.15,East,84,0.0,3.0,97,0.00,,,0.01,237,Wunderground v.1.15,2013-07-09 13:50:00,
2013-07-09 07:56:00,51.7,50.6,30.14,East,84,0.0,3.0,96,0.00,,,0.01,253,Wunderground v.1.15,2013-07-09 13:56:00,
2013-07-09 08:01:00,51.9,50.8,30.15,East,84,0.0,0.0,96,0.00,,,0.01,274,Wunderground v.1.15,2013-07-09 14:01:00,
2013-07-09 08:07:00,52.4,51.3,30.15,East,84,0.0,1.0,96,0.00,,,0.01,295,Wunderground v.1.15,2013-07-09 14:07:00,
2013-07-09 08:13:00,52.9,51.2,30.15,North,360,0.0,1.0,94,0.00,,,0.01,320,Wunderground v.1.15,2013-07-09 14:13:00,
2013-07-09 08:19:00,53.2,50.6,30.15,NNE,29,0.0,1.0,91,0.00,,,0.01,341,Wunderground v.1.15,2013-07-09 14:19:00,
2013-07-09 08:25:00,53.5,50.3,30.15,ENE,60,0.0,3.0,89,0.00,,,0.01,359,Wunderground v.1.15,2013-07-09 14:25:00,
2013-07-09 08:31:00,53.8,50.0,30.15,NE,45,0.0,0.0,87,0.00,,,0.01,374,Wunderground v.1.15,2013-07-09 14:31:00,
2013-07-09 08:36:00,54.1,50.0,30.15,ENE,61,0.0,1.0,86,0.00,,,0.01,390,Wunderground v.1.15,2013-07-09 14:36:00,
2013-07-09 08:42:00,54.4,50.0,30.15,ENE,61,0.0,1.0,85,0.00,,,0.01,404,Wunderground v.1.15,2013-07-09 14:42:00,
2013-07-09 08:48:00,54.7,50.3,30.16,ENE,61,0.0,1.0,85,0.00,,,0.01,420,Wunderground v.1.15,2013-07-09 14:48:00,
2013-07-09 08:54:00,55.1,50.0,30.16,ENE,67,0.0,1.0,83,0.00,,,0.01,436,Wunderground v.1.15,2013-07-09 14:54:00,
2013-07-09 09:00:00,55.3,50.5,30.16,ENE,67,0.0,0.0,84,0.00,,,0.01,450,Wunderground v.1.15,2013-07-09 15:00:00,
2013-07-09 09:06:00,55.6,50.5,30.16,ENE,74,0.0,2.0,83,0.00,,,0.01,466,Wunderground v.1.15,2013-07-09 15:06:00,
2013-07-09 09:12:00,55.8,50.7,30.16,ENE,77,1.0,2.0,83,0.00,,,0.01,482,Wunderground v.1.15,2013-07-09 15:12:00,
2013-07-09 09:18:00,56.1,50.7,30.16,ENE,77,1.0,2.0,82,0.00,,,0.01,497,Wunderground v.1.15,2013-07-09 15:18:00,
2013-07-09 09:24:00,56.5,51.1,30.16,NW,304,1.0,2.0,82,0.00,,,0.01,513,Wunderground v.1.15,2013-07-09 15:24:00,
2013-07-09 09:30:00,56.9,51.5,30.16,NNE,19,1.0,1.0,82,0.00,,,0.01,527,Wunderground v.1.15,2013-07-09 15:30:00,
2013-07-09 09:36:00,57.5,52.0,30.16,NNE,19,0.0,1.0,82,0.00,,,0.01,541,Wunderground v.1.15,2013-07-09 15:36:00,
2013-07-09 09:42:00,57.9,51.8,30.16,ENE,74,1.0,2.0,80,0.00,,,0.01,559,Wunderground v.1.15,2013-07-09 15:42:00,
2013-07-09 09:48:00,58.2,52.7,30.16,NNW,341,1.0,2.0,82,0.00,,,0.01,575,Wunderground v.1.15,2013-07-09 15:48:00,
2013-07-09 09:54:00,59.0,52.8,30.16,SSE,153,0.0,2.0,80,0.00,,,0.01,589,Wunderground v.1.15,2013-07-09 15:54:00,
2013-07-09 10:00:00,59.5,52.6,30.16,ENE,67,1.0,1.0,78,0.00,,,0.01,605,Wunderground v.1.15,2013-07-09 16:00:00,
2013-07-09 10:06:00,60.0,52.4,30.15,SSW,205,1.0,1.0,76,0.00,,,0.01,615,Wunderground v.1.15,2013-07-09 16:06:00,
2013-07-09 10:12:00,60.5,54.0,30.15,NW,316,0.0,2.0,79,0.00,,,0.01,628,Wunderground v.1.15,2013-07-09 16:12:00,
2013-07-09 10:17:00,60.7,53.4,30.15,SSE,150,1.0,3.0,77,0.00,,,0.01,640,Wunderground v.1.15,2013-07-09 16:17:00,
2013-07-09 10:23:00,61.1,53.1,30.15,NNE,17,0.0,1.0,75,0.00,,,0.01,652,Wunderground v.1.15,2013-07-09 16:23:00,
2013-07-09 10:28:00,61.5,53.5,30.15,SSE,167,0.0,1.0,75,0.00,,,0.01,663,Wunderground v.1.15,2013-07-09 16:28:00,
2013-07-09 10:33:00,62.1,53.7,30.15,ENE,68,1.0,4.0,74,0.00,,,0.01,673,Wunderground v.1.15,2013-07-09 16:33:00,
2013-07-09 10:39:00,62.7,54.7,30.15,ENE,72,0.0,4.0,75,0.00,,,0.01,684,Wunderground v.1.15,2013-07-09 16:39:00,
2013-07-09 10:45:00,63.4,54.2,30.15,ENE,75,0.0,1.0,72,0.00,,,0.01,696,Wunderground v.1.15,2013-07-09 16:45:00,
2013-07-09 10:50:00,63.9,55.1,30.15,ESE,118,1.0,1.0,73,0.00,,,0.01,707,Wunderground v.1.15,2013-07-09 16:50:00,
2013-07-09 10:55:00,64.2,54.2,30.15,East,95,1.0,2.0,70,0.00,,,0.01,715,Wunderground v.1.15,2013-07-09 16:55:00,
2013-07-09 11:01:00,64.5,54.1,30.14,SSE,150,0.0,6.0,69,0.00,,,0.01,728,Wunderground v.1.15,2013-07-09 17:01:00,
2013-07-09 11:07:00,65.1,54.7,30.14,South,175,1.0,6.0,69,0.00,,,0.01,735,Wunderground v.1.15,2013-07-09 17:07:00,
2013-07-09 11:12:00,65.6,54.3,30.14,ENE,76,0.0,1.0,67,0.00,,,0.01,747,Wunderground v.1.15,2013-07-09 17:12:00,
2013-07-09 11:18:00,65.7,54.4,30.14,ENE,76,1.0,1.0,67,0.00,,,0.01,756,Wunderground v.1.15,2013-07-09 17:18:00,
2013-07-09 11:24:00,65.7,54.0,30.14,South,169,1.0,2.0,66,0.00,,,0.01,766,Wunderground v.1.15,2013-07-09 17:24:00,
2013-07-09 11:30:00,66.3,55.0,30.13,WSW,244,1.0,2.0,67,0.00,,,0.01,773,Wunderground v.1.15,2013-07-09 17:30:00,
2013-07-09 11:36:00,66.9,55.2,30.13,WNW,299,0.0,2.0,66,0.00,,,0.01,784,Wunderground v.1.15,2013-07-09 17:36:00,
2013-07-09 11:42:00,67.5,54.5,30.13,ENE,74,1.0,1.0,63,0.00,,,0.01,795,Wunderground v.1.15,2013-07-09 17:42:00,
2013-07-09 11:48:00,68.0,55.4,30.13,SE,126,1.0,2.0,64,0.00,,,0.01,800,Wunderground v.1.15,2013-07-09 17:48:00,
2013-07-09 11:54:00,68.5,54.5,30.13,NNE,15,1.0,3.0,61,0.00,,,0.01,809,Wunderground v.1.15,2013-07-09 17:54:00,
2013-07-09 12:00:00,68.7,55.2,30.13,NW,322,1.0,1.0,62,0.00,,,0.01,816,Wunderground v.1.15,2013-07-09 18:00:00,
2013-07-09 12:06:00,68.7,54.7,30.13,NNE,32,1.0,5.0,61,0.00,,,0.01,823,Wunderground v.1.15,2013-07-09 18:06:00,
2013-07-09 12:12:00,68.8,52.9,30.13,ENE,65,1.0,2.0,57,0.00,,,0.01,830,Wunderground v.1.15,2013-07-09 18:12:00,
2013-07-09 12:18:00,69.1,54.2,30.13,West,263,1.0,4.0,59,0.00,,,0.01,835,Wunderground v.1.15,2013-07-09 18:18:00,
2013-07-09 12:24:00,69.3,53.9,30.12,NNE,33,1.0,1.0,58,0.00,,,0.01,842,Wunderground v.1.15,2013-07-09 18:24:00,
2013-07-09 12:30:00,69.7,55.2,30.13,ENE,66,0.0,0.0,60,0.00,,,0.01,846,Wunderground v.1.15,2013-07-09 18:30:00,
2013-07-09 12:36:00,70.0,52.1,30.12,West,263,0.0,4.0,53,0.00,,,0.01,856,Wunderground v.1.15,2013-07-09 18:36:00,
2013-07-09 12:42:00,70.1,52.2,30.12,WNW,300,2.0,4.0,53,0.00,,,0.01,858,Wunderground v.1.15,2013-07-09 18:42:00,
2013-07-09 12:48:00,70.3,51.3,30.12,West,270,3.0,5.0,51,0.00,,,0.01,861,Wunderground v.1.15,2013-07-09 18:48:00,
2013-07-09 12:53:00,70.6,51.6,30.12,WNW,300,2.0,5.0,51,0.00,,,0.01,863,Wunderground v.1.15,2013-07-09 18:53:00,
2013-07-09 12:59:00,70.7,52.7,30.12,South,173,2.0,7.0,53,0.00,,,0.01,868,Wunderground v.1.15,2013-07-09 18:59:00,
2013-07-09 13:05:00,71.1,51.5,30.12,West,281,2.0,7.0,50,0.00,,,0.01,872,Wunderground v.1.15,2013-07-09 19:05:00,
2013-07-09 13:10:00,71.3,52.2,30.12,West,277,2.0,6.0,51,0.00,,,0.01,872,Wunderground v.1.15,2013-07-09 19:10:00,
2013-07-09 13:15:00,71.3,55.3,30.12,SW,217,3.0,6.0,57,0.00,,,0.01,874,Wunderground v.1.15,2013-07-09 19:15:00,
2013-07-09 13:16:00,71.4,52.3,30.12,WNW,283,3.0,6.0,51,0.00,,,0.01,875,Wunderground v.1.15,2013-07-09 19:16:00,
2013-07-09 13:22:00,71.7,51.5,30.11,WSW,250,2.0,5.0,49,0.00,,,0.01,879,Wunderground v.1.15,2013-07-09 19:22:00,
2013-07-09 13:28:00,71.8,52.7,30.11,WNW,295,2.0,10.0,51,0.00,,,0.01,879,Wunderground v.1.15,2013-07-09 19:28:00,
2013-07-09 13:33:00,72.1,50.8,30.11,WNW,284,2.0,4.0,47,0.00,,,0.01,881,Wunderground v.1.15,2013-07-09 19:33:00,
2013-07-09 13:39:00,72.4,53.2,30.11,NW,325,2.0,8.0,51,0.00,,,0.01,882,Wunderground v.1.15,2013-07-09 19:39:00,
2013-07-09 13:45:00,72.6,50.0,30.11,SSE,153,2.0,7.0,45,0.00,,,0.01,881,Wunderground v.1.15,2013-07-09 19:45:00,
2013-07-09 13:51:00,72.8,50.2,30.11,WNW,300,2.0,4.0,45,0.00,,,0.01,882,Wunderground v.1.15,2013-07-09 19:51:00,
2013-07-09 13:57:00,72.9,49.7,30.10,NNW,337,2.0,5.0,44,0.00,,,0.01,882,Wunderground v.1.15,2013-07-09 19:57:00,
2013-07-09 14:03:00,73.1,49.3,30.10,WNW,294,2.0,3.0,43,0.00,,,0.01,881,Wunderground v.1.15,2013-07-09 20:03:00,
2013-07-09 14:08:00,73.6,49.1,30.10,WSW,239,1.0,6.0,42,0.00,,,0.01,881,Wunderground v.1.15,2013-07-09 20:08:00,
2013-07-09 14:14:00,74.0,46.8,30.10,West,278,2.0,5.0,38,0.00,,,0.01,879,Wunderground v.1.15,2013-07-09 20:14:00,
2013-07-09 14:19:00,74.2,49.0,30.10,South,169,1.0,5.0,41,0.00,,,0.01,877,Wunderground v.1.15,2013-07-09 20:19:00,
2013-07-09 14:24:00,74.4,47.1,30.10,West,273,1.0,4.0,38,0.00,,,0.01,877,Wunderground v.1.15,2013-07-09 20:24:00,
2013-07-09 14:30:00,74.5,47.9,30.10,WNW,297,2.0,2.0,39,0.00,,,0.01,870,Wunderground v.1.15,2013-07-09 20:30:00,
2013-07-09 14:36:00,74.5,48.6,30.10,West,277,3.0,5.0,40,0.00,,,0.01,867,Wunderground v.1.15,2013-07-09 20:36:00,
2013-07-09 14:42:00,74.6,50.0,30.10,NNW,343,3.0,4.0,42,0.00,,,0.01,860,Wunderground v.1.15,2013-07-09 20:42:00,
2013-07-09 14:48:00,74.9,49.6,30.10,SW,225,3.0,5.0,41,0.00,,,0.01,860,Wunderground v.1.15,2013-07-09 20:48:00,
2013-07-09 14:54:00,75.1,49.1,30.10,SSE,150,2.0,5.0,40,0.00,,,0.01,851,Wunderground v.1.15,2013-07-09 20:54:00,
2013-07-09 15:00:00,75.3,48.6,30.09,WNW,302,2.0,2.0,39,0.00,,,0.01,847,Wunderground v.1.15,2013-07-09 21:00:00,
2013-07-09 15:06:00,75.3,50.6,30.09,WNW,295,2.0,8.0,42,0.00,,,0.01,838,Wunderground v.1.15,2013-07-09 21:06:00,
2013-07-09 15:11:00,75.2,50.5,30.09,WNW,288,3.0,4.0,42,0.00,,,0.01,831,Wunderground v.1.15,2013-07-09 21:11:00,
2013-07-09 15:16:00,75.3,50.0,30.09,NNW,342,3.0,7.0,41,0.00,,,0.01,824,Wunderground v.1.15,2013-07-09 21:16:00,
2013-07-09 15:21:00,75.3,49.3,30.09,WNW,286,2.0,6.0,40,0.00,,,0.01,817,Wunderground v.1.15,2013-07-09 21:21:00,
2013-07-09 15:27:00,75.5,51.4,30.09,West,281,2.0,6.0,43,0.00,,,0.01,809,Wunderground v.1.15,2013-07-09 21:27:00,
2013-07-09 15:33:00,75.9,51.2,30.09,West,260,1.0,5.0,42,0.00,,,0.01,803,Wunderground v.1.15,2013-07-09 21:33:00,
2013-07-09 15:38:00,76.0,49.9,30.08,ESE,107,2.0,5.0,40,0.00,,,0.01,798,Wunderground v.1.15,2013-07-09 21:38:00,
2013-07-09 15:44:00,76.2,50.8,30.08,SE,146,1.0,5.0,41,0.00,,,0.01,793,Wunderground v.1.15,2013-07-09 21:44:00,
2013-07-09 15:50:00,76.6,51.8,30.08,SSE,152,1.0,1.0,42,0.00,,,0.01,784,Wunderground v.1.15,2013-07-09 21:50:00,
2013-07-09 15:56:00,76.8,49.3,30.07,SSE,156,1.0,3.0,38,0.00,,,0.01,780,Wunderground v.1.15,2013-07-09 21:56:00,
2013-07-09 16:02:00,76.9,50.1,30.07,WSW,257,2.0,4.0,39,0.00,,,0.01,768,Wunderground v.1.15,2013-07-09 22:02:00,
2013-07-09 16:08:00,77.0,50.1,30.07,NNW,338,2.0,6.0,39,0.00,,,0.01,758,Wunderground v.1.15,2013-07-09 22:08:00,
2013-07-09 16:14:00,77.2,49.6,30.07,West,279,1.0,8.0,38,0.00,,,0.01,747,Wunderground v.1.15,2013-07-09 22:14:00,
2013-07-09 16:19:00,77.2,50.3,30.07,NE,36,2.0,8.0,39,0.00,,,0.01,729,Wunderground v.1.15,2013-07-09 22:19:00,
2013-07-09 16:25:00,77.3,49.7,30.07,SE,143,2.0,5.0,38,0.00,,,0.01,717,Wunderground v.1.15,2013-07-09 22:25:00,
2013-07-09 16:31:00,77.4,50.5,30.07,NNW,345,2.0,2.0,39,0.00,,,0.01,703,Wunderground v.1.15,2013-07-09 22:31:00,
2013-07-09 16:37:00,77.5,49.9,30.07,SW,222,2.0,10.0,38,0.00,,,0.01,693,Wunderground v.1.15,2013-07-09 22:37:00,
2013-07-09 16:43:00,77.3,49.7,30.07,SE,143,3.0,6.0,38,0.00,,,0.01,682,Wunderground v.1.15,2013-07-09 22:43:00,
2013-07-09 16:49:00,77.3,52.4,30.06,WNW,290,3.0,7.0,42,0.00,,,0.01,668,Wunderground v.1.15,2013-07-09 22:49:00,
2013-07-09 16:55:00,77.5,51.9,30.06,South,185,1.0,3.0,41,0.00,,,0.01,654,Wunderground v.1.15,2013-07-09 22:55:00,
2013-07-09 17:01:00,77.8,49.4,30.06,NNE,17,1.0,2.0,37,0.00,,,0.01,645,Wunderground v.1.15,2013-07-09 23:01:00,
2013-07-09 17:07:00,78.0,51.7,30.06,WNW,288,2.0,5.0,40,0.00,,,0.01,628,Wunderground v.1.15,2013-07-09 23:07:00,
2013-07-09 17:13:00,78.2,50.5,30.06,SSW,202,1.0,2.0,38,0.00,,,0.01,617,Wunderground v.1.15,2013-07-09 23:13:00,
2013-07-09 17:19:00,78.4,50.0,30.05,WSW,254,1.0,5.0,37,0.00,,,0.01,605,Wunderground v.1.15,2013-07-09 23:19:00,
2013-07-09 17:25:00,78.5,50.8,30.05,West,275,2.0,2.0,38,0.00,,,0.01,587,Wunderground v.1.15,2013-07-09 23:25:00,
2013-07-09 17:31:00,78.7,52.3,30.05,WNW,300,1.0,1.0,40,0.00,,,0.01,573,Wunderground v.1.15,2013-07-09 23:31:00,
2013-07-09 17:37:00,78.7,52.3,30.05,West,273,1.0,6.0,40,0.00,,,0.01,563,Wunderground v.1.15,2013-07-09 23:37:00,
2013-07-09 17:42:00,78.7,51.0,30.05,NW,313,2.0,3.0,38,0.00,,,0.01,547,Wunderground v.1.15,2013-07-09 23:42:00,
2013-07-09 17:48:00,78.7,48.7,30.04,WNW,298,2.0,4.0,35,0.00,,,0.01,529,Wunderground v.1.15,2013-07-09 23:48:00,
2013-07-09 17:54:00,78.7,49.5,30.04,South,169,1.0,2.0,36,0.00,,,0.01,515,Wunderground v.1.15,2013-07-09 23:54:00,
2013-07-09 18:00:00,79.0,50.5,30.04,WSW,252,0.0,0.0,37,0.00,,,0.01,499,Wunderground v.1.15,2013-07-10 00:00:00,
2013-07-09 18:06:00,79.1,51.3,30.04,WNW,284,0.0,1.0,38,0.00,,,0.01,487,Wunderground v.1.15,2013-07-10 00:06:00,
2013-07-09 18:11:00,79.2,51.4,30.04,NW,306,0.0,0.0,38,0.00,,,0.01,476,Wunderground v.1.15,2013-07-10 00:11:00,
2013-07-09 18:17:00,79.4,53.0,30.03,WNW,302,0.0,4.0,40,0.00,,,0.01,461,Wunderground v.1.15,2013-07-10 00:17:00,
2013-07-09 18:23:00,79.3,52.9,30.03,NW,318,1.0,1.0,40,0.00,,,0.01,436,Wunderground v.1.15,2013-07-10 00:23:00,
2013-07-09 18:29:00,79.2,52.1,30.03,NW,318,0.0,2.0,39,0.00,,,0.01,438,Wunderground v.1.15,2013-07-10 00:29:00,
2013-07-09 18:35:00,79.1,49.8,30.03,WSW,240,0.0,2.0,36,0.00,,,0.01,436,Wunderground v.1.15,2013-07-10 00:35:00,
2013-07-09 18:41:00,79.1,47.5,30.03,SW,223,0.0,0.0,33,0.00,,,0.01,417,Wunderground v.1.15,2013-07-10 00:41:00,
2013-07-09 18:47:00,79.2,49.2,30.03,ESE,119,0.0,0.0,35,0.00,,,0.01,283,Wunderground v.1.15,2013-07-10 00:47:00,
2013-07-09 18:53:00,79.1,50.6,30.02,WSW,257,0.0,1.0,37,0.00,,,0.01,83,Wunderground v.1.15,2013-07-10 00:53:00,
2013-07-09 18:59:00,78.9,55.1,30.02,WSW,257,0.0,1.0,44,0.00,,,0.01,362,Wunderground v.1.15,2013-07-10 00:59:00,
2013-07-09 19:04:00,78.7,56.2,30.02,WSW,257,0.0,0.0,46,0.00,,,0.01,385,Wunderground v.1.15,2013-07-10 01:04:00,
2013-07-09 19:10:00,78.2,55.7,30.01,WSW,257,0.0,0.0,46,0.00,,,0.01,353,Wunderground v.1.15,2013-07-10 01:10:00,
2013-07-09 19:16:00,77.9,53.0,30.01,WSW,257,0.0,0.0,42,0.00,,,0.01,316,Wunderground v.1.15,2013-07-10 01:16:00,
2013-07-09 19:22:00,77.7,54.7,30.01,WSW,257,0.0,0.0,45,0.00,,,0.01,292,Wunderground v.1.15,2013-07-10 01:22:00,
2013-07-09 19:27:00,77.6,54.6,30.01,WSW,257,0.0,0.0,45,0.00,,,0.01,272,Wunderground v.1.15,2013-07-10 01:27:00,
2013-07-09 19:33:00,77.5,53.2,30.00,WSW,257,0.0,0.0,43,0.00,,,0.01,257,Wunderground v.1.15,2013-07-10 01:33:00,
2013-07-09 19:39:00,77.0,53.4,30.00,WSW,257,0.0,1.0,44,0.00,,,0.01,239,Wunderground v.1.15,2013-07-10 01:39:00,
2013-07-09 19:45:00,76.1,53.8,30.00,WSW,257,0.0,1.0,46,0.00,,,0.01,223,Wunderground v.1.15,2013-07-10 01:45:00,
2013-07-09 19:51:00,75.1,54.1,30.00,WSW,257,0.0,1.0,48,0.00,,,0.01,209,Wunderground v.1.15,2013-07-10 01:51:00,
2013-07-09 19:57:00,73.9,53.0,30.00,WSW,257,0.0,1.0,48,0.00,,,0.01,176,Wunderground v.1.15,2013-07-10 01:57:00,
2013-07-09 20:03:00,72.8,53.6,29.99,WSW,257,0.0,1.0,51,0.00,,,0.01,178,Wunderground v.1.15,2013-07-10 02:03:00,
2013-07-09 20:09:00,71.6,54.1,30.00,WSW,257,0.0,1.0,54,0.00,,,0.01,163,Wunderground v.1.15,2013-07-10 02:09:00,
2013-07-09 20:15:00,70.3,54.8,29.99,West,272,1.0,2.0,58,0.00,,,0.01,102,Wunderground v.1.15,2013-07-10 02:15:00,
2013-07-09 20:21:00,69.0,54.5,29.99,West,272,1.0,2.0,60,0.00,,,0.01,26,Wunderground v.1.15,2013-07-10 02:21:00,
2013-07-09 20:27:00,68.1,55.0,29.99,West,272,1.0,2.0,63,0.00,,,0.01,25,Wunderground v.1.15,2013-07-10 02:27:00,
2013-07-09 20:33:00,67.2,54.2,29.99,West,273,0.0,2.0,63,0.00,,,0.01,19,Wunderground v.1.15,2013-07-10 02:33:00,
2013-07-09 20:39:00,65.5,53.4,29.99,West,273,1.0,2.0,65,0.00,,,0.01,16,Wunderground v.1.15,2013-07-10 02:39:00,
2013-07-09 20:45:00,64.2,52.6,29.99,West,273,1.0,1.0,66,0.00,,,0.01,16,Wunderground v.1.15,2013-07-10 02:45:00,
2013-07-09 20:51:00,63.0,52.7,29.99,West,273,1.0,2.0,69,0.00,,,0.01,14,Wunderground v.1.15,2013-07-10 02:51:00,
2013-07-09 20:57:00,62.2,52.3,29.99,West,273,1.0,2.0,70,0.00,,,0.01,12,Wunderground v.1.15,2013-07-10 02:57:00,
2013-07-09 21:03:00,61.4,52.3,29.99,West,273,1.0,1.0,72,0.00,,,0.01,12,Wunderground v.1.15,2013-07-10 03:03:00,
2013-07-09 21:09:00,61.0,52.3,29.99,West,273,1.0,2.0,73,0.00,,,0.01,11,Wunderground v.1.15,2013-07-10 03:09:00,
2013-07-09 21:15:00,60.4,52.1,29.99,West,273,1.0,1.0,74,0.00,,,0.01,9,Wunderground v.1.15,2013-07-10 03:15:00,
2013-07-09 21:21:00,59.9,51.6,29.99,West,273,1.0,2.0,74,0.00,,,0.01,7,Wunderground v.1.15,2013-07-10 03:21:00,
2013-07-09 21:26:00,59.7,51.0,29.99,WNW,282,1.0,2.0,73,0.00,,,0.01,5,Wunderground v.1.15,2013-07-10 03:26:00,
2013-07-09 21:32:00,59.5,50.8,29.99,WNW,282,0.0,1.0,73,0.00,,,0.01,0,Wunderground v.1.15,2013-07-10 03:32:00,
2013-07-09 21:38:00,59.5,51.6,29.99,WNW,282,0.0,1.0,75,0.00,,,0.01,0,Wunderground v.1.15,2013-07-10 03:38:00,
2013-07-09 21:44:00,59.4,50.7,29.99,West,267,1.0,5.0,73,0.00,,,0.01,0,Wunderground v.1.15,2013-07-10 03:44:00,
2013-07-09 21:50:00,59.4,51.5,29.99,West,267,0.0,1.0,75,0.00,,,0.01,0,Wunderground v.1.15,2013-07-10 03:50:00,
2013-07-09 21:56:00,59.2,50.9,30.00,West,267,0.0,1.0,74,0.00,,,0.01,0,Wunderground v.1.15,2013-07-10 03:56:00,
2013-07-09 22:01:00,59.0,50.4,30.00,West,267,0.0,0.0,73,0.00,,,0.01,0,Wunderground v.1.15,2013-07-10 04:01:00,
2013-07-09 22:02:00,59.0,50.4,30.00,West,267,0.0,0.0,73,0.00,,,0.01,0,Wunderground v.1.15,2013-07-10 04:02:00,
2013-07-09 22:03:00,59.0,50.4,30.00,West,267,0.0,0.0,73,0.00,,,0.01,0,Wunderground v.1.15,2013-07-10 04:03:00,
2013-07-09 22:09:00,59.0,50.0,30.00,SW,223,0.0,2.0,72,0.00,,,0.01,0,Wunderground v.1.15,2013-07-10 04:09:00,
2013-07-09 22:13:00,59.0,50.7,30.00,SW,223,0.0,0.0,74,0.00,,,0.01,0,Wunderground v.1.15,2013-07-10 04:13:00,
2013-07-09 22:19:00,59.0,50.7,30.00,SW,223,0.0,0.0,74,0.00,,,0.01,0,Wunderground v.1.15,2013-07-10 04:19:00,
2013-07-09 22:25:00,58.7,50.8,30.00,SW,223,0.0,1.0,75,0.00,,,0.01,0,Wunderground v.1.15,2013-07-10 04:25:00,
2013-07-09 22:31:00,58.2,49.6,30.00,SW,223,0.0,1.0,73,0.00,,,0.01,0,Wunderground v.1.15,2013-07-10 04:31:00,
2013-07-09 22:37:00,57.8,50.3,30.00,SW,223,0.0,1.0,76,0.00,,,0.01,0,Wunderground v.1.15,2013-07-10 04:37:00,
2013-07-09 22:43:00,57.3,49.1,30.00,SW,223,0.0,1.0,74,0.00,,,0.01,0,Wunderground v.1.15,2013-07-10 04:43:00,
2013-07-09 22:49:00,57.1,50.0,30.00,SW,223,0.0,1.0,77,0.00,,,0.01,0,Wunderground v.1.15,2013-07-10 04:49:00,
2013-07-09 22:55:00,56.8,49.7,30.00,SW,223,0.0,1.0,77,0.00,,,0.01,0,Wunderground v.1.15,2013-07-10 04:55:00,
2013-07-09 23:01:00,56.5,49.4,30.00,SW,223,0.0,0.0,77,0.00,,,0.01,0,Wunderground v.1.15,2013-07-10 05:01:00,
2013-07-09 23:07:00,56.4,49.6,30.00,SW,223,0.0,1.0,78,0.00,,,0.01,0,Wunderground v.1.15,2013-07-10 05:07:00,
2013-07-09 23:12:00,56.4,50.3,30.00,SW,223,0.0,0.0,80,0.00,,,0.01,0,Wunderground v.1.15,2013-07-10 05:12:00,
2013-07-09 23:18:00,56.2,50.1,30.00,SW,223,0.0,0.0,80,0.00,,,0.01,0,Wunderground v.1.15,2013-07-10 05:18:00,
2013-07-09 23:24:00,56.1,50.3,30.00,SW,223,0.0,0.0,81,0.00,,,0.01,0,Wunderground v.1.15,2013-07-10 05:24:00,
2013-07-09 23:30:00,55.9,50.2,30.00,SW,223,0.0,0.0,81,0.00,,,0.01,0,Wunderground v.1.15,2013-07-10 05:30:00,
2013-07-09 23:36:00,55.7,49.3,30.00,SW,223,0.0,1.0,79,0.00,,,0.01,0,Wunderground v.1.15,2013-07-10 05:36:00,
2013-07-09 23:42:00,55.5,49.8,30.00,SW,223,0.0,0.0,81,0.00,,,0.01,0,Wunderground v.1.15,2013-07-10 05:42:00,
2013-07-09 23:48:00,55.4,50.3,30.00,SW,223,0.0,0.0,83,0.00,,,0.01,0,Wunderground v.1.15,2013-07-10 05:48:00,
2013-07-09 23:54:00,55.2,50.1,30.00,SW,223,0.0,0.0,83,0.00,,,0.01,0,Wunderground v.1.15,2013-07-10 05:54:00,